User: anonymous   Login
Location: Unspecified
(0.0000°N, 0.0000°E)
Time: 21:46:27
(UTC+00:00)
Language:

GONETS M 08 (M18) - Orbit

View from above orbital plane
View from above orbital plane
View from above satellite
View from above satellite

Ground track
Ground track

The orbit data is extracted from the following two-line orbital elements,

1 40061U 14036A   17117.71732184 +.00000010 +00000-0 +00000-0 0  9996
2 40061 082.5131 220.4173 0028463 227.4356 132.4325 12.42898459127859
Epoch (UTC): 27 April 2017 17:12:56
Eccentricity: 0.0028463
inclination: 82.5131°
perigee height: 1472 km
apogee height: 1517 km
right ascension of ascending node: 220.4173°
argument of perigee: 227.4356°
revolutions per day: 12.42898459
mean anomaly at epoch: 132.4325°
orbit number at epoch: 12785

The dashed part of the orbit path shows where the satellite is in the earth's shadow,  

DLR